Home > Weather > Plano > Past weeks

Flag for U.S.A. Weather for the Past 2 Weeks in Plano, Texas, U.S.A.

Now
51 °F

Sunny.


Feels Like: 47 °F
Forecast: 42 / 60 °F
Wind: 13 mph from Southeast

Location: McKinney Municipal Airport

Current Time: Feb 13, 2016 at 11:45:12 AM

Latest Report: Feb 13, 2016 at 10:53 AM


Visibility: 10 mi

Pressure: 30.43 "Hg

Humidity: 52%

Dew point: 34 °F

Location of PlanoLocation

Historic Weather in Plano — Graph

°F

Plano Temperature Yesterday

Maximum temperature yesterday: 68 °F (at 3:53 PM)
Minimum temperature yesterday: 40 °F (at 5:53 AM)
Average temperature yesterday: 53 °F

High & Low Weather Summary for the Past Weeks

 TemperatureHumidityPressure
High75 °F (Jan 29, 1:53 PM)96% (Feb 5, 5:53 AM)30.54 "Hg (Feb 5, 5:53 AM)
Low27 °F (Feb 4, 5:53 AM)14% (Feb 8, 3:53 PM)29.55 "Hg (Feb 1, 9:53 PM)
Average50 °F52%30.13 "Hg
* Reported Jan 29 10:53 AM — Feb 13 10:53 AM, Plano, Weather by CustomWeather, © 2016

Note: Actual official high and low records may vary slightly from our data, if they occured in-between our weather recording intervals... More about our weather records

Advertising

Plano Weather History for the Previous 24 Hours

 ConditionsComfort  
Time TempWeatherWind HumidityBarometerVisibility
10:53 AM
Sat, Feb 13
51 °FSunny.13 mph52%30.43 "Hg10 mi
9:53 AM48 °FSunny.14 mph56%30.44 "Hg10 mi
8:53 AM44 °FSunny.9 mph63%30.45 "Hg10 mi
7:53 AM40 °FSunny.8 mph68%30.45 "Hg10 mi
6:53 AM38 °FClear.5 mph68%30.44 "Hg10 mi
5:53 AM38 °FClear.6 mph68%30.41 "Hg10 mi
4:53 AM38 °FClear.8 mph70%30.40 "Hg10 mi
3:53 AM39 °FClear.7 mph67%30.41 "Hg10 mi
2:53 AM40 °FClear.8 mph68%30.42 "Hg10 mi
1:53 AM43 °FClear.8 mph62%30.41 "Hg10 mi
12:53 AM43 °FClear.7 mph65%30.40 "Hg10 mi
11:53 PM
Fri, Feb 12
45 °FClear.7 mph60%30.40 "Hg10 mi
10:53 PM49 °FClear.8 mph52%30.39 "Hg10 mi
9:53 PM52 °FClear.9 mph49%30.38 "Hg10 mi
8:53 PM55 °FClear.10 mph44%30.36 "Hg10 mi
7:53 PM55 °FClear.7 mph49%30.35 "Hg10 mi
6:53 PM57 °FClear.3 mph46%30.33 "Hg10 mi
5:53 PM63 °FSunny.5 mph38%30.31 "Hg10 mi
4:53 PM67 °FSunny.8 mph35%30.29 "Hg10 mi
3:53 PM68 °FSunny.10 mph33%30.28 "Hg10 mi
2:53 PM67 °FSunny.7 mph33%30.29 "Hg10 mi
1:53 PM67 °FSunny.8 mph35%30.28 "Hg10 mi
12:53 PM65 °FSunny.8 mph36%30.31 "Hg10 mi
11:53 AM62 °FSunny.8 mph41%30.33 "Hg10 mi
Weather by CustomWeather, © 2016

See weather overviewHow to use our weather pages